Year,Month,Day,Hour,Minute,Value (Times are PST for temperature in C)
2018,08,22,00,00,17.50
2018,08,22,00,01,17.40
2018,08,22,00,02,17.40
2018,08,22,00,03,17.30
2018,08,22,00,04,17.30
2018,08,22,00,05,17.20
2018,08,22,00,06,17.20
2018,08,22,00,07,17.10
2018,08,22,00,08,17.10
2018,08,22,00,09,17.10
2018,08,22,00,10,17.10
2018,08,22,00,11,17.10
2018,08,22,00,12,17.00
2018,08,22,00,13,17.00
2018,08,22,00,14,16.90
2018,08,22,00,15,16.90
2018,08,22,00,16,16.90
2018,08,22,00,17,16.80
2018,08,22,00,18,16.80
2018,08,22,00,19,16.80
2018,08,22,00,20,16.80
2018,08,22,00,21,16.80
2018,08,22,00,22,16.70
2018,08,22,00,23,16.70
2018,08,22,00,24,16.70
2018,08,22,00,25,16.70
2018,08,22,00,26,16.70
2018,08,22,00,27,16.70
2018,08,22,00,28,16.70
2018,08,22,00,29,16.70
2018,08,22,00,30,16.70
2018,08,22,00,31,16.70
2018,08,22,00,32,16.70
2018,08,22,00,33,16.60
2018,08,22,00,34,16.60
2018,08,22,00,35,16.60
2018,08,22,00,36,16.60
2018,08,22,00,37,16.60
2018,08,22,00,38,16.50
2018,08,22,00,39,16.50
2018,08,22,00,40,16.40
2018,08,22,00,41,16.40
2018,08,22,00,42,16.40
2018,08,22,00,43,16.30
2018,08,22,00,44,16.30
2018,08,22,00,45,16.30
2018,08,22,00,46,16.20
2018,08,22,00,47,16.20
2018,08,22,00,48,16.20
2018,08,22,00,49,16.20
2018,08,22,00,50,16.20
2018,08,22,00,51,16.20
2018,08,22,00,52,16.20
2018,08,22,00,53,16.20
2018,08,22,00,54,16.20
2018,08,22,00,55,16.20
2018,08,22,00,56,16.20
2018,08,22,00,57,16.10
2018,08,22,00,58,16.10
2018,08,22,00,59,16.10
2018,08,22,01,00,16.10
2018,08,22,01,01,16.10
2018,08,22,01,02,16.00
2018,08,22,01,03,16.00
2018,08,22,01,04,15.90
2018,08,22,01,05,15.90
2018,08,22,01,06,15.80
2018,08,22,01,07,15.80
2018,08,22,01,08,15.80
2018,08,22,01,09,15.70
2018,08,22,01,10,15.70
2018,08,22,01,11,15.70
2018,08,22,01,12,15.70
2018,08,22,01,13,15.70
2018,08,22,01,14,15.70
2018,08,22,01,15,15.70
2018,08,22,01,16,15.70
2018,08,22,01,17,15.70
2018,08,22,01,18,15.70
2018,08,22,01,19,15.70
2018,08,22,01,20,15.70
2018,08,22,01,21,15.60
2018,08,22,01,22,15.60
2018,08,22,01,23,15.60
2018,08,22,01,24,15.60
2018,08,22,01,25,15.60
2018,08,22,01,26,15.60
2018,08,22,01,27,15.60
2018,08,22,01,28,15.60
2018,08,22,01,29,15.60
2018,08,22,01,30,15.50
2018,08,22,01,31,15.50
2018,08,22,01,32,15.50
2018,08,22,01,33,15.50
2018,08,22,01,34,15.40
2018,08,22,01,35,15.40
2018,08,22,01,36,15.40
2018,08,22,01,37,15.40
2018,08,22,01,38,15.30
2018,08,22,01,39,15.30
2018,08,22,01,40,15.30
2018,08,22,01,41,15.30
2018,08,22,01,42,15.30
2018,08,22,01,43,15.30
2018,08,22,01,44,15.20
2018,08,22,01,45,15.20
2018,08,22,01,46,15.20
2018,08,22,01,47,15.10
2018,08,22,01,48,15.10
2018,08,22,01,49,15.10
2018,08,22,01,50,15.00
2018,08,22,01,51,15.00
2018,08,22,01,52,14.90
2018,08,22,01,53,14.90
2018,08,22,01,54,14.90
2018,08,22,01,55,14.90
2018,08,22,01,56,14.80
2018,08,22,01,57,14.80
2018,08,22,01,58,14.80
2018,08,22,01,59,14.80
2018,08,22,02,00,14.80
2018,08,22,02,01,14.70
2018,08,22,02,02,14.70
2018,08,22,02,03,14.70
2018,08,22,02,04,14.70
2018,08,22,02,05,14.70
2018,08,22,02,06,14.70
2018,08,22,02,07,14.60
2018,08,22,02,08,14.60
2018,08,22,02,09,14.60
2018,08,22,02,10,14.60
2018,08,22,02,11,14.60
2018,08,22,02,12,14.60
2018,08,22,02,13,14.60
2018,08,22,02,14,14.50
2018,08,22,02,15,14.50
2018,08,22,02,16,14.50
2018,08,22,02,17,14.40
2018,08,22,02,18,14.40
2018,08,22,02,19,14.40
2018,08,22,02,20,14.40
2018,08,22,02,21,14.40
2018,08,22,02,22,14.40
2018,08,22,02,23,14.40
2018,08,22,02,24,14.40
2018,08,22,02,25,14.40
2018,08,22,02,26,14.40
2018,08,22,02,27,14.40
2018,08,22,02,28,14.40
2018,08,22,02,29,14.40
2018,08,22,02,30,14.40
2018,08,22,02,31,14.30
2018,08,22,02,32,14.30
2018,08,22,02,33,14.30
2018,08,22,02,34,14.30
2018,08,22,02,35,14.30
2018,08,22,02,36,14.30
2018,08,22,02,37,14.30
2018,08,22,02,38,14.30
2018,08,22,02,39,14.30
2018,08,22,02,40,14.30
2018,08,22,02,41,14.30
2018,08,22,02,42,14.30
2018,08,22,02,43,14.30
2018,08,22,02,44,14.20
2018,08,22,02,45,14.20
2018,08,22,02,46,14.20
2018,08,22,02,47,14.20
2018,08,22,02,48,14.10
2018,08,22,02,49,14.10
2018,08,22,02,50,14.10
2018,08,22,02,51,14.10
2018,08,22,02,52,14.00
2018,08,22,02,53,14.00
2018,08,22,02,54,13.90
2018,08,22,02,55,13.90
2018,08,22,02,56,13.90
2018,08,22,02,57,13.80
2018,08,22,02,58,13.80
2018,08,22,02,59,13.80
2018,08,22,03,00,13.80
2018,08,22,03,01,13.70
2018,08,22,03,02,13.70
2018,08,22,03,03,13.70
2018,08,22,03,04,13.70
2018,08,22,03,05,13.70
2018,08,22,03,06,13.60
2018,08,22,03,07,13.60
2018,08,22,03,08,13.60
2018,08,22,03,09,13.60
2018,08,22,03,10,13.60
2018,08,22,03,11,13.60
2018,08,22,03,12,13.60
2018,08,22,03,13,13.60
2018,08,22,03,14,13.50
2018,08,22,03,15,13.50
2018,08,22,03,16,13.50
2018,08,22,03,17,13.50
2018,08,22,03,18,13.50
2018,08,22,03,19,13.40
2018,08,22,03,20,13.40
2018,08,22,03,21,13.30
2018,08,22,03,22,13.30
2018,08,22,03,23,13.30
2018,08,22,03,24,13.30
2018,08,22,03,25,13.30
2018,08,22,03,26,13.30
2018,08,22,03,27,13.20
2018,08,22,03,28,13.20
2018,08,22,03,29,13.20
2018,08,22,03,30,13.20
2018,08,22,03,31,13.20
2018,08,22,03,32,13.20
2018,08,22,03,33,13.20
2018,08,22,03,34,13.20
2018,08,22,03,35,13.20
2018,08,22,03,36,13.20
2018,08,22,03,37,13.20
2018,08,22,03,38,13.20
2018,08,22,03,39,13.20
2018,08,22,03,40,13.10
2018,08,22,03,41,13.10
2018,08,22,03,42,13.10
2018,08,22,03,43,13.10
2018,08,22,03,44,13.10
2018,08,22,03,45,13.10
2018,08,22,03,46,13.10
2018,08,22,03,47,13.00
2018,08,22,03,48,13.00
2018,08,22,03,49,12.90
2018,08,22,03,50,12.90
2018,08,22,03,51,12.90
2018,08,22,03,52,12.90
2018,08,22,03,53,12.90
2018,08,22,03,54,12.90
2018,08,22,03,55,12.90
2018,08,22,03,56,12.90
2018,08,22,03,57,12.90
2018,08,22,03,58,12.90
2018,08,22,03,59,12.90
2018,08,22,04,00,12.90
2018,08,22,04,01,12.90
2018,08,22,04,02,12.90
2018,08,22,04,03,12.90
2018,08,22,04,04,12.90
2018,08,22,04,05,12.90
2018,08,22,04,06,12.90
2018,08,22,04,07,12.90
2018,08,22,04,08,13.00
2018,08,22,04,09,13.00
2018,08,22,04,10,13.00
2018,08,22,04,11,13.00
2018,08,22,04,12,13.00
2018,08,22,04,13,13.00
2018,08,22,04,14,13.00
2018,08,22,04,15,13.00
2018,08,22,04,16,12.90
2018,08,22,04,17,12.90
2018,08,22,04,18,12.80
2018,08,22,04,19,12.80
2018,08,22,04,20,12.80
2018,08,22,04,21,12.80
2018,08,22,04,22,12.80
2018,08,22,04,23,12.70
2018,08,22,04,24,12.70
2018,08,22,04,25,12.70
2018,08,22,04,26,12.70
2018,08,22,04,27,12.70
2018,08,22,04,28,12.60
2018,08,22,04,29,12.60
2018,08,22,04,30,12.60
2018,08,22,04,31,12.60
2018,08,22,04,32,12.60
2018,08,22,04,33,12.60
2018,08,22,04,34,12.60
2018,08,22,04,35,12.60
2018,08,22,04,36,12.60
2018,08,22,04,37,12.60
2018,08,22,04,38,12.60
2018,08,22,04,39,12.60
2018,08,22,04,40,12.60
2018,08,22,04,41,12.60
2018,08,22,04,42,12.60
2018,08,22,04,43,12.60
2018,08,22,04,44,12.60
2018,08,22,04,45,12.60
2018,08,22,04,46,12.60
2018,08,22,04,47,12.60
2018,08,22,04,48,12.60
2018,08,22,04,49,12.60
2018,08,22,04,50,12.60
2018,08,22,04,51,12.60
2018,08,22,04,52,12.50
2018,08,22,04,53,12.50
2018,08,22,04,54,12.50
2018,08,22,04,55,12.40
2018,08,22,04,56,12.40
2018,08,22,04,57,12.40
2018,08,22,04,58,12.40
2018,08,22,04,59,12.40
2018,08,22,05,00,12.40
2018,08,22,05,01,12.40
2018,08,22,05,02,12.40
2018,08,22,05,03,12.40
2018,08,22,05,04,12.40
2018,08,22,05,05,12.40
2018,08,22,05,06,12.40
2018,08,22,05,07,12.40
2018,08,22,05,08,12.40
2018,08,22,05,09,12.40
2018,08,22,05,10,12.40
2018,08,22,05,11,12.40
2018,08,22,05,12,12.40
2018,08,22,05,13,12.40
2018,08,22,05,14,12.40
2018,08,22,05,15,12.40
2018,08,22,05,16,12.40
2018,08,22,05,17,12.40
2018,08,22,05,18,12.40
2018,08,22,05,19,12.40
2018,08,22,05,20,12.40
2018,08,22,05,21,12.40
2018,08,22,05,22,12.30
2018,08,22,05,23,12.30
2018,08,22,05,24,12.30
2018,08,22,05,25,12.20
2018,08,22,05,26,12.20
2018,08,22,05,27,12.20
2018,08,22,05,28,12.20
2018,08,22,05,29,12.20
2018,08,22,05,30,12.20
2018,08,22,05,31,12.20
2018,08,22,05,32,12.20
2018,08,22,05,33,12.20
2018,08,22,05,34,12.20
2018,08,22,05,35,12.20
2018,08,22,05,36,12.20
2018,08,22,05,37,12.20
2018,08,22,05,38,12.20
2018,08,22,05,39,12.20
2018,08,22,05,40,12.20
2018,08,22,05,41,12.20
2018,08,22,05,42,12.20
2018,08,22,05,43,12.20
2018,08,22,05,44,12.20
2018,08,22,05,45,12.20
2018,08,22,05,46,12.20
2018,08,22,05,47,12.20
2018,08,22,05,48,12.20
2018,08,22,05,49,12.20
2018,08,22,05,50,12.10
2018,08,22,05,51,12.10
2018,08,22,05,52,12.10
2018,08,22,05,53,12.10
2018,08,22,05,54,12.10
2018,08,22,05,55,12.10
2018,08,22,05,56,12.10
2018,08,22,05,57,12.10
2018,08,22,05,58,12.10
2018,08,22,05,59,12.10
2018,08,22,06,00,12.10
2018,08,22,06,01,12.00
2018,08,22,06,02,12.00
2018,08,22,06,03,12.00
2018,08,22,06,04,12.00
2018,08,22,06,05,11.90
2018,08,22,06,06,11.90
2018,08,22,06,07,11.90
2018,08,22,06,08,11.90
2018,08,22,06,09,11.90
2018,08,22,06,10,11.90
2018,08,22,06,11,11.90
2018,08,22,06,12,11.90
2018,08,22,06,13,11.90
2018,08,22,06,14,12.00
2018,08,22,06,15,12.00
2018,08,22,06,16,12.00
2018,08,22,06,17,12.00
2018,08,22,06,18,12.00
2018,08,22,06,19,12.00
2018,08,22,06,20,12.00
2018,08,22,06,21,12.00
2018,08,22,06,22,12.00
2018,08,22,06,23,12.00
2018,08,22,06,24,11.90
2018,08,22,06,25,11.90
2018,08,22,06,26,11.90
2018,08,22,06,27,11.90
2018,08,22,06,28,11.90
2018,08,22,06,29,11.90
2018,08,22,06,30,11.80
2018,08,22,06,31,11.80
2018,08,22,06,32,11.80
2018,08,22,06,33,11.80
2018,08,22,06,34,11.80
2018,08,22,06,35,11.70
2018,08,22,06,36,11.70
2018,08,22,06,37,11.70
2018,08,22,06,38,11.80
2018,08,22,06,39,11.80
2018,08,22,06,40,11.80
2018,08,22,06,41,11.80
2018,08,22,06,42,11.80
2018,08,22,06,43,11.80
2018,08,22,06,44,11.80
2018,08,22,06,45,11.90
2018,08,22,06,46,11.90
2018,08,22,06,47,11.90
2018,08,22,06,48,11.90
2018,08,22,06,49,11.90
2018,08,22,06,50,11.90
2018,08,22,06,51,11.90
2018,08,22,06,52,11.90
2018,08,22,06,53,11.90
2018,08,22,06,54,11.90
2018,08,22,06,55,12.00
2018,08,22,06,56,12.00
2018,08,22,06,57,12.00
2018,08,22,06,58,12.00
2018,08,22,06,59,12.00
2018,08,22,07,00,12.00
2018,08,22,07,01,12.00
2018,08,22,07,02,12.00
2018,08,22,07,03,11.90
2018,08,22,07,04,11.90
2018,08,22,07,05,11.90
2018,08,22,07,06,11.90
2018,08,22,07,07,11.90
2018,08,22,07,08,11.90
2018,08,22,07,09,11.90
2018,08,22,07,10,11.90
2018,08,22,07,11,11.90
2018,08,22,07,12,11.90
2018,08,22,07,13,11.90
2018,08,22,07,14,11.90
2018,08,22,07,15,11.90
2018,08,22,07,16,12.00
2018,08,22,07,17,12.00
2018,08,22,07,18,12.00
2018,08,22,07,19,12.10
2018,08,22,07,20,12.10
2018,08,22,07,21,12.10
2018,08,22,07,22,12.20
2018,08,22,07,23,12.20
2018,08,22,07,24,12.20
2018,08,22,07,25,12.20
2018,08,22,07,26,12.30
2018,08,22,07,27,12.30
2018,08,22,07,28,12.30
2018,08,22,07,29,12.30
2018,08,22,07,30,12.30
2018,08,22,07,31,12.40
2018,08,22,07,32,12.40
2018,08,22,07,33,12.50
2018,08,22,07,34,12.50
2018,08,22,07,35,12.50
2018,08,22,07,36,12.60
2018,08,22,07,37,12.60
2018,08,22,07,38,12.70
2018,08,22,07,39,12.70
2018,08,22,07,40,12.80
2018,08,22,07,41,12.80
2018,08,22,07,42,12.80
2018,08,22,07,43,12.90
2018,08,22,07,44,12.90
2018,08,22,07,45,13.00
2018,08,22,07,46,13.00
2018,08,22,07,47,13.00
2018,08,22,07,48,13.10
2018,08,22,07,49,13.10
2018,08,22,07,50,13.10
2018,08,22,07,51,13.20
2018,08,22,07,52,13.20
2018,08,22,07,53,13.20
2018,08,22,07,54,13.20
2018,08,22,07,55,13.30
2018,08,22,07,56,13.30
2018,08,22,07,57,13.30
2018,08,22,07,58,13.40
2018,08,22,07,59,13.40
2018,08,22,08,00,13.40
2018,08,22,08,01,13.50
2018,08,22,08,02,13.50
2018,08,22,08,03,13.60
2018,08,22,08,04,13.60
2018,08,22,08,05,13.70
2018,08,22,08,06,13.70
2018,08,22,08,07,13.80
2018,08,22,08,08,13.80
2018,08,22,08,09,13.90
2018,08,22,08,10,13.90
2018,08,22,08,11,13.90
2018,08,22,08,12,14.00
2018,08,22,08,13,14.10
2018,08,22,08,14,14.10
2018,08,22,08,15,14.20
2018,08,22,08,16,14.20
2018,08,22,08,17,14.30
2018,08,22,08,18,14.30
2018,08,22,08,19,14.40
2018,08,22,08,20,14.40
2018,08,22,08,21,14.50
2018,08,22,08,22,14.60
2018,08,22,08,23,14.70
2018,08,22,08,24,14.70
2018,08,22,08,25,14.80
2018,08,22,08,26,14.90
2018,08,22,08,27,15.00
2018,08,22,08,28,15.10
2018,08,22,08,29,15.20
2018,08,22,08,30,15.30
2018,08,22,08,31,15.40
2018,08,22,08,32,15.50
2018,08,22,08,33,15.60
2018,08,22,08,34,15.70
2018,08,22,08,35,15.70
2018,08,22,08,36,15.80
2018,08,22,08,37,15.80
2018,08,22,08,38,15.80
2018,08,22,08,39,15.80
2018,08,22,08,40,15.80
2018,08,22,08,41,15.80
2018,08,22,08,42,15.90
2018,08,22,08,43,15.90
2018,08,22,08,44,15.90
2018,08,22,08,45,16.00
2018,08,22,08,46,16.00
2018,08,22,08,47,16.10
2018,08,22,08,48,16.10
2018,08,22,08,49,16.10
2018,08,22,08,50,16.20
2018,08,22,08,51,16.20
2018,08,22,08,52,16.20
2018,08,22,08,53,16.20
2018,08,22,08,54,16.30
2018,08,22,08,55,16.30
2018,08,22,08,56,16.30
2018,08,22,08,57,16.30
2018,08,22,08,58,16.40
2018,08,22,08,59,16.40
2018,08,22,09,00,16.50
2018,08,22,09,01,16.50
2018,08,22,09,02,16.50
2018,08,22,09,03,16.60
2018,08,22,09,04,16.60
2018,08,22,09,05,16.60
2018,08,22,09,06,16.60
2018,08,22,09,07,16.60
2018,08,22,09,08,16.60
2018,08,22,09,09,16.60
2018,08,22,09,10,16.60
2018,08,22,09,11,16.60
2018,08,22,09,12,16.70
2018,08,22,09,13,16.60
2018,08,22,09,14,16.70
2018,08,22,09,15,16.70
2018,08,22,09,16,16.70
2018,08,22,09,17,16.70
2018,08,22,09,18,16.70
2018,08,22,09,19,16.70
2018,08,22,09,20,16.80
2018,08,22,09,21,16.80
2018,08,22,09,22,16.80
2018,08,22,09,23,16.80
2018,08,22,09,24,16.80
2018,08,22,09,25,16.80
2018,08,22,09,26,16.80
2018,08,22,09,27,16.80
2018,08,22,09,28,16.80
2018,08,22,09,29,16.80
2018,08,22,09,30,16.80
2018,08,22,09,31,16.90
2018,08,22,09,32,16.90
2018,08,22,09,33,17.00
2018,08,22,09,34,17.10
2018,08,22,09,35,17.20
2018,08,22,09,36,17.30
2018,08,22,09,37,17.50
2018,08,22,09,38,17.60
2018,08,22,09,39,17.70
2018,08,22,09,40,17.80
2018,08,22,09,41,17.80
2018,08,22,09,42,17.90
2018,08,22,09,43,18.00
2018,08,22,09,44,18.10
2018,08,22,09,45,18.10
2018,08,22,09,46,18.20
2018,08,22,09,47,18.20
2018,08,22,09,48,18.30
2018,08,22,09,49,18.30
2018,08,22,09,50,18.30
2018,08,22,09,51,18.40
2018,08,22,09,52,18.40
2018,08,22,09,53,18.40
2018,08,22,09,54,18.40
2018,08,22,09,55,18.50
2018,08,22,09,56,18.50
2018,08,22,09,57,18.60
2018,08,22,09,58,18.70
2018,08,22,09,59,18.70
2018,08,22,10,00,18.80
2018,08,22,10,01,18.90
2018,08,22,10,02,19.00
2018,08,22,10,03,19.00
2018,08,22,10,04,19.10
2018,08,22,10,05,19.20
2018,08,22,10,06,19.30
2018,08,22,10,07,19.30
2018,08,22,10,08,19.30
2018,08,22,10,09,19.40
2018,08,22,10,10,19.40
2018,08,22,10,11,19.40
2018,08,22,10,12,19.50
2018,08,22,10,13,19.50
2018,08,22,10,14,19.50
2018,08,22,10,15,19.40
2018,08,22,10,16,19.40
2018,08,22,10,17,19.40
2018,08,22,10,18,19.40
2018,08,22,10,19,19.30
2018,08,22,10,20,19.30
2018,08,22,10,21,19.30
2018,08,22,10,22,19.30
2018,08,22,10,23,19.30
2018,08,22,10,24,19.30
2018,08,22,10,25,19.30
2018,08,22,10,26,19.20
2018,08,22,10,27,19.20
2018,08,22,10,28,19.20
2018,08,22,10,29,19.20
2018,08,22,10,30,19.20
2018,08,22,10,31,19.20
2018,08,22,10,32,19.20
2018,08,22,10,33,19.20
2018,08,22,10,34,19.20
2018,08,22,10,35,19.20
2018,08,22,10,36,19.20
2018,08,22,10,37,19.20
2018,08,22,10,38,19.20
2018,08,22,10,39,19.20
2018,08,22,10,40,19.20
2018,08,22,10,41,19.20
2018,08,22,10,42,19.20
2018,08,22,10,43,19.20
2018,08,22,10,44,19.10
2018,08,22,10,45,19.10
2018,08,22,10,46,19.10
2018,08,22,10,47,19.10
2018,08,22,10,48,19.10
2018,08,22,10,49,19.00
2018,08,22,10,50,19.00
2018,08,22,10,51,19.00
2018,08,22,10,52,19.00
2018,08,22,10,53,19.00
2018,08,22,10,54,19.00
2018,08,22,10,55,19.00
2018,08,22,10,56,18.90
2018,08,22,10,57,18.90
2018,08,22,10,58,18.90
2018,08,22,10,59,18.90
2018,08,22,11,00,19.00
2018,08,22,11,01,19.00
2018,08,22,11,02,19.10
2018,08,22,11,03,19.10
2018,08,22,11,04,19.20
2018,08,22,11,05,19.20
2018,08,22,11,06,19.30
2018,08,22,11,07,19.30
2018,08,22,11,08,19.30
2018,08,22,11,09,19.30
2018,08,22,11,10,19.40
2018,08,22,11,11,19.50
2018,08,22,11,12,19.50
2018,08,22,11,13,19.60
2018,08,22,11,14,19.70
2018,08,22,11,15,19.80
2018,08,22,11,16,19.90
2018,08,22,11,17,20.00
2018,08,22,11,18,20.10
2018,08,22,11,19,20.30
2018,08,22,11,20,20.40
2018,08,22,11,21,20.50
2018,08,22,11,22,20.50
2018,08,22,11,23,20.50
2018,08,22,11,24,20.60
2018,08,22,11,25,20.90
2018,08,22,11,26,21.00
2018,08,22,11,27,21.10
2018,08,22,11,28,21.20
2018,08,22,11,29,21.20
2018,08,22,11,30,21.30
2018,08,22,11,31,21.30
2018,08,22,11,32,21.30
2018,08,22,11,33,21.40
2018,08,22,11,34,21.40
2018,08,22,11,35,21.50
2018,08,22,11,36,21.60
2018,08,22,11,37,21.70
2018,08,22,11,38,21.70
2018,08,22,11,39,21.80
2018,08,22,11,40,21.80
2018,08,22,11,41,21.80
2018,08,22,11,42,21.80
2018,08,22,11,43,21.80
2018,08,22,11,44,21.80
2018,08,22,11,45,21.80
2018,08,22,11,46,21.80
2018,08,22,11,47,21.70
2018,08,22,11,48,21.70
2018,08,22,11,49,21.70
2018,08,22,11,50,21.70
2018,08,22,11,51,21.70
2018,08,22,11,52,21.80
2018,08,22,11,53,21.80
2018,08,22,11,54,21.80
2018,08,22,11,55,21.90
2018,08,22,11,56,22.00
2018,08,22,11,57,22.00
2018,08,22,11,58,22.00
2018,08,22,11,59,22.10
2018,08,22,12,00,22.20
2018,08,22,12,01,22.20
2018,08,22,12,02,22.30
2018,08,22,12,03,22.40
2018,08,22,12,04,22.40
2018,08,22,12,05,22.50
2018,08,22,12,06,22.60
2018,08,22,12,07,22.60
2018,08,22,12,08,22.70
2018,08,22,12,09,22.70
2018,08,22,12,10,22.80
2018,08,22,12,11,22.80
2018,08,22,12,12,22.70
2018,08,22,12,13,22.70
2018,08,22,12,14,22.60
2018,08,22,12,15,22.60
2018,08,22,12,16,22.50
2018,08,22,12,17,22.50
2018,08,22,12,18,22.50
2018,08,22,12,19,22.60
2018,08,22,12,20,22.60
2018,08,22,12,21,22.60
2018,08,22,12,22,22.60
2018,08,22,12,23,22.50
2018,08,22,12,24,22.50
2018,08,22,12,25,22.40
2018,08,22,12,26,22.40
2018,08,22,12,27,22.40
2018,08,22,12,28,22.50
2018,08,22,12,29,22.50
2018,08,22,12,30,22.60
2018,08,22,12,31,22.60
2018,08,22,12,32,22.70
2018,08,22,12,33,22.70
2018,08,22,12,34,22.70
2018,08,22,12,35,22.70
2018,08,22,12,36,22.70
2018,08,22,12,37,22.80
2018,08,22,12,38,22.80
2018,08,22,12,39,22.80
2018,08,22,12,40,22.70
2018,08,22,12,41,22.60
2018,08,22,12,42,22.60
2018,08,22,12,43,22.50
2018,08,22,12,44,22.60
2018,08,22,12,45,22.60
2018,08,22,12,46,22.70
2018,08,22,12,47,22.70
2018,08,22,12,48,22.80
2018,08,22,12,49,22.90
2018,08,22,12,50,23.00
2018,08,22,12,51,23.00
2018,08,22,12,52,23.10
2018,08,22,12,53,23.10
2018,08,22,12,54,23.20
2018,08,22,12,55,23.30
2018,08,22,12,56,23.40
2018,08,22,12,57,23.50
2018,08,22,12,58,23.60
2018,08,22,12,59,23.70
2018,08,22,13,00,23.70
2018,08,22,13,01,23.80
2018,08,22,13,02,23.80
2018,08,22,13,03,23.80
2018,08,22,13,04,23.80
2018,08,22,13,05,23.90
2018,08,22,13,06,23.90
2018,08,22,13,07,23.90
2018,08,22,13,08,23.90
2018,08,22,13,09,23.90
2018,08,22,13,10,23.90
2018,08,22,13,11,23.80
2018,08,22,13,12,23.80
2018,08,22,13,13,23.80
2018,08,22,13,14,23.80
2018,08,22,13,15,23.80
2018,08,22,13,16,23.90
2018,08,22,13,17,24.00
2018,08,22,13,18,24.00
2018,08,22,13,19,24.10
2018,08,22,13,20,24.20
2018,08,22,13,21,24.20
2018,08,22,13,22,24.30
2018,08,22,13,23,24.30
2018,08,22,13,24,24.40
2018,08,22,13,25,24.40
2018,08,22,13,26,24.30
2018,08,22,13,27,24.30
2018,08,22,13,28,24.20
2018,08,22,13,29,24.20
2018,08,22,13,30,24.10
2018,08,22,13,31,24.00
2018,08,22,13,32,23.90
2018,08,22,13,33,23.80
2018,08,22,13,34,23.70
2018,08,22,13,35,23.70
2018,08,22,13,36,23.60
2018,08,22,13,37,23.60
2018,08,22,13,38,23.50
2018,08,22,13,39,23.50
2018,08,22,13,40,23.40
2018,08,22,13,41,23.30
2018,08,22,13,42,23.20
2018,08,22,13,43,23.10
2018,08,22,13,44,23.00
2018,08,22,13,45,22.90
2018,08,22,13,46,22.80
2018,08,22,13,47,22.70
2018,08,22,13,48,22.60
2018,08,22,13,49,22.50
2018,08,22,13,50,22.40
2018,08,22,13,51,22.40
2018,08,22,13,52,22.30
2018,08,22,13,53,22.30
2018,08,22,13,54,22.30
2018,08,22,13,55,22.30
2018,08,22,13,56,22.20
2018,08,22,13,57,22.20
2018,08,22,13,58,22.20
2018,08,22,13,59,22.20
2018,08,22,14,00,22.20
2018,08,22,14,01,22.20
2018,08,22,14,02,22.20
2018,08,22,14,03,22.20
2018,08,22,14,04,22.20
2018,08,22,14,05,22.20
2018,08,22,14,06,22.20
2018,08,22,14,07,22.20
2018,08,22,14,08,22.20
2018,08,22,14,09,22.20
2018,08,22,14,10,22.20
2018,08,22,14,11,22.30
2018,08,22,14,12,22.30
2018,08,22,14,13,22.30
2018,08,22,14,14,22.40
2018,08,22,14,15,22.50
2018,08,22,14,16,22.50
2018,08,22,14,17,22.60
2018,08,22,14,18,22.70
2018,08,22,14,19,22.70
2018,08,22,14,20,22.80
2018,08,22,14,21,22.90
2018,08,22,14,22,23.00
2018,08,22,14,23,23.10
2018,08,22,14,24,23.20
2018,08,22,14,25,23.20
2018,08,22,14,26,23.30
2018,08,22,14,27,23.30
2018,08,22,14,28,23.40
2018,08,22,14,29,23.40
2018,08,22,14,30,23.40
2018,08,22,14,31,23.40
2018,08,22,14,32,23.40
2018,08,22,14,33,23.40
2018,08,22,14,34,23.50
2018,08,22,14,35,23.40
2018,08,22,14,36,23.40
2018,08,22,14,37,23.40
2018,08,22,14,38,23.40
2018,08,22,14,39,23.50
2018,08,22,14,40,23.50
2018,08,22,14,41,23.50
2018,08,22,14,42,23.50
2018,08,22,14,43,23.50
2018,08,22,14,44,23.40
2018,08,22,14,45,23.40
2018,08,22,14,46,23.40
2018,08,22,14,47,23.40
2018,08,22,14,48,23.50
2018,08,22,14,49,23.50
2018,08,22,14,50,23.50
2018,08,22,14,51,23.50
2018,08,22,14,52,23.60
2018,08,22,14,53,23.60
2018,08,22,14,54,23.70
2018,08,22,14,55,23.70
2018,08,22,14,56,23.80
2018,08,22,14,57,23.80
2018,08,22,14,58,23.80
2018,08,22,14,59,23.90
2018,08,22,15,00,23.90
2018,08,22,15,01,23.90
2018,08,22,15,02,23.90
2018,08,22,15,03,23.90
2018,08,22,15,04,23.90
2018,08,22,15,05,23.90
2018,08,22,15,06,23.90
2018,08,22,15,07,23.90
2018,08,22,15,08,23.90
2018,08,22,15,09,23.90
2018,08,22,15,10,23.90
2018,08,22,15,11,23.80
2018,08,22,15,12,23.80
2018,08,22,15,13,23.80
2018,08,22,15,14,23.80
2018,08,22,15,15,23.70
2018,08,22,15,16,23.70
2018,08,22,15,17,23.70
2018,08,22,15,18,23.70
2018,08,22,15,19,23.70
2018,08,22,15,20,23.70
2018,08,22,15,21,23.60
2018,08,22,15,22,23.60
2018,08,22,15,23,23.60
2018,08,22,15,24,23.60
2018,08,22,15,25,23.60
2018,08,22,15,26,23.50
2018,08,22,15,27,23.50
2018,08,22,15,28,23.50
2018,08,22,15,29,23.50
2018,08,22,15,30,23.40
2018,08,22,15,31,23.40
2018,08,22,15,32,23.40
2018,08,22,15,33,23.40
2018,08,22,15,34,23.40
2018,08,22,15,35,23.40
2018,08,22,15,36,23.40
2018,08,22,15,37,23.40
2018,08,22,15,38,23.40
2018,08,22,15,39,23.40
2018,08,22,15,40,23.40
2018,08,22,15,41,23.40
2018,08,22,15,42,23.40
2018,08,22,15,43,23.50
2018,08,22,15,44,23.50
2018,08,22,15,45,23.50
2018,08,22,15,46,23.50
2018,08,22,15,47,23.50
2018,08,22,15,48,23.50
2018,08,22,15,49,23.60
2018,08,22,15,50,23.60
2018,08,22,15,51,23.60
2018,08,22,15,52,23.60
2018,08,22,15,53,23.60
2018,08,22,15,54,23.60
2018,08,22,15,55,23.70
2018,08,22,15,56,23.70
2018,08,22,15,57,23.80
2018,08,22,15,58,23.80
2018,08,22,15,59,23.80
2018,08,22,16,00,23.80
2018,08,22,16,01,23.70
2018,08,22,16,02,23.70
2018,08,22,16,03,23.70
2018,08,22,16,04,23.70
2018,08,22,16,05,23.70
2018,08,22,16,06,23.70
2018,08,22,16,07,23.70
2018,08,22,16,08,23.70
2018,08,22,16,09,23.80
2018,08,22,16,10,23.80
2018,08,22,16,11,23.90
2018,08,22,16,12,23.90
2018,08,22,16,13,24.00
2018,08,22,16,14,24.00
2018,08,22,16,15,24.10
2018,08,22,16,16,24.10
2018,08,22,16,17,24.10
2018,08,22,16,18,24.10
2018,08,22,16,19,24.10
2018,08,22,16,20,24.10
2018,08,22,16,21,24.10
2018,08,22,16,22,24.10
2018,08,22,16,23,24.20
2018,08,22,16,24,24.20
2018,08,22,16,25,24.30
2018,08,22,16,26,24.40
2018,08,22,16,27,24.40
2018,08,22,16,28,24.40
2018,08,22,16,29,24.40
2018,08,22,16,30,24.50
2018,08,22,16,31,24.50
2018,08,22,16,32,24.60
2018,08,22,16,33,24.60
2018,08,22,16,34,24.60
2018,08,22,16,35,24.60
2018,08,22,16,36,24.60
2018,08,22,16,37,24.60
2018,08,22,16,38,24.60
2018,08,22,16,39,24.70
2018,08,22,16,40,24.70
2018,08,22,16,41,24.70
2018,08,22,16,42,24.70
2018,08,22,16,43,24.60
2018,08,22,16,44,24.60
2018,08,22,16,45,24.60
2018,08,22,16,46,24.60
2018,08,22,16,47,24.50
2018,08,22,16,48,24.50
2018,08,22,16,49,24.40
2018,08,22,16,50,24.40
2018,08,22,16,51,24.30
2018,08,22,16,52,24.20
2018,08,22,16,53,24.10
2018,08,22,16,54,24.00
2018,08,22,16,55,23.90
2018,08,22,16,56,23.80
2018,08,22,16,57,23.70
2018,08,22,16,58,23.60
2018,08,22,16,59,23.40
2018,08,22,17,00,23.30
2018,08,22,17,01,23.10
2018,08,22,17,02,23.00
2018,08,22,17,03,22.90
2018,08,22,17,04,22.80
2018,08,22,17,05,22.60
2018,08,22,17,06,22.50
2018,08,22,17,07,22.40
2018,08,22,17,08,22.20
2018,08,22,17,09,22.10
2018,08,22,17,10,21.90
2018,08,22,17,11,21.80
2018,08,22,17,12,21.60
2018,08,22,17,13,21.50
2018,08,22,17,14,21.30
2018,08,22,17,15,21.20
2018,08,22,17,16,21.00
2018,08,22,17,17,20.80
2018,08,22,17,18,20.60
2018,08,22,17,19,20.40